Flag for Canada Weather past 2 weeks in Edmonton, Alberta, Canada

Now
23 °F

Low clouds.


Feels Like: 16 °F
Forecast: 9 / 20 °F
Wind: 6 mph from Southwest

Location: Edmonton Municipal

Current Time: Dec 17, 2014 at 8:03:13 PM

Latest Report: Dec 17, 2014 at 7:00 PM


Visibility: 6 mi

Pressure: 29.95 "Hg

Humidity: 86%

Dew point: 19 °F

Location of EdmontonLocation

Historic Weather in Edmonton — Graph

°F

Edmonton temperature yesterday

Maximum temperature yesterday: 25 °F (at 3:00 PM)
Minimum temperature yesterday: 18 °F (at 12:00 AM)
Average temperature yesterday: 22 °F

Past Weeks' High & Low Weather Summary

 TemperatureHumidityPressure
High52 °F (Dec 9, 9:00 PM)100% (Dec 8, 12:00 AM)30.43 "Hg (Dec 8, 12:00 AM)
Low5 °F (Dec 8, 12:00 AM)47% (Dec 9, 9:00 PM)29.21 "Hg (Dec 11, 5:00 AM)
Average24 °F80%29.96 "Hg
* Reported Dec 2 6:00 PM — Dec 17 6:00 PM, Edmonton, Weather by CustomWeather, © 2014

Note: Actual official high and low records may vary slightly from our data, if they occured in-between our weather recording intervals... More about our weather records

Advertising

Edmonton weather history for previous 24 hours

 ConditionsComfort  
Time TempWeatherWind HumidityBarometerVisibility
6:00 PM
Dec 17
23 °FLow clouds.5 mph86%29.95 "Hg8 mi
5:00 PM23 °FOvercast.6 mph86%29.94 "Hg9 mi
4:00 PM25 °FLow clouds.5 mph80%29.94 "Hg9 mi
3:00 PM23 °FLow clouds.6 mph86%29.94 "Hg9 mi
2:00 PM23 °FLow clouds.7 mph86%29.94 "Hg9 mi
1:00 PM23 °FLow clouds.9 mph86%29.94 "Hg9 mi
12:00 PM23 °FLow clouds.8 mph80%29.95 "Hg9 mi
11:00 AM23 °FLow clouds.10 mph86%29.96 "Hg9 mi
10:00 AM23 °FLow clouds.8 mph80%29.98 "Hg9 mi
9:00 AM23 °FLow clouds.8 mph86%29.98 "Hg9 mi
8:00 AM23 °FLow clouds.8 mph80%29.97 "Hg9 mi
7:00 AM21 °FLow clouds.7 mph86%29.98 "Hg9 mi
6:00 AM21 °FLow clouds.8 mph86%29.98 "Hg9 mi
5:00 AM21 °FLow clouds.12 mph86%29.98 "Hg9 mi
4:00 AM21 °FLow clouds.8 mph86%29.99 "Hg9 mi
3:00 AM21 °FLow clouds.8 mph86%30.00 "Hg9 mi
2:00 AM21 °FLow clouds.9 mph86%30.00 "Hg9 mi
1:00 AM21 °FLow clouds.12 mph80%30.01 "Hg9 mi
12:00 AM23 °FOvercast.12 mph86%30.01 "Hg9 mi
11:00 PM
Dec 16
23 °FOvercast.15 mph86%30.02 "Hg9 mi
10:00 PM23 °FLow clouds.14 mph80%30.02 "Hg9 mi
9:00 PM23 °FLow clouds.10 mph86%30.02 "Hg9 mi
8:00 PM23 °FOvercast.14 mph86%30.03 "Hg9 mi
Weather by CustomWeather, © 2014

See weather overviewHow to use our weather pages